Regional Weather Roundup
Issued by NWS Newport/Morehead, NC

Current Version | Previous Version | Graphics & Text | Print | Product List | Glossary Off
Versions: 1 2 3 4 5 6 7 8 9 10 11 12 13 14 15 16 17 18 19 20 21 22 23 24 25 26 27 28 29 30 31 32 33 34 35 36 37 38 39 40 41 42 43 44 45 46 47 48 49 50

000
ASUS42 KMHX 301322
RWRMHX
WEATHER ROUNDUP FOR EASTERN NORTH CAROLINA
NATIONAL WEATHER SERVICE NEWPORT/MOREHEAD CITY NC
900 AM EDT WED JUL 30 2014

NOTE: "FAIR" INDICATES FEW OR NO CLOUDS BELOW 12,000 FEET
WITH NO SIGNIFICANT WEATHER AND/OR OBSTRUCTIONS TO VISIBILITY

NCZ015>017-031-032-045>047-102-103-301400-
NORTH COAST

CITY           SKY/WX    TMP DP  RH WIND       PRES   REMARKS
EDENTON        MOSUNNY   72  62  71 NE6       30.07R
ELIZABETH CITY SUNNY     73  62  68 N7        30.07R
KITTY HAWK     SUNNY     76  61  58 NE7       30.05R
MANTEO         NOT AVBL

$$

NCZ045>047-081-094-103-104-301400-
CENTRAL COAST

CITY           SKY/WX    TMP DP  RH WIND       PRES   REMARKS
FRISCO         SUNNY     78  62  57 NE8       30.04R
SWANQUARTER      N/A     75 N/A N/A NE10      30.00S

$$

NCZ095-097-098-100-101-301400-
SOUTHERN COAST

CITY           SKY/WX    TMP DP  RH WIND       PRES   REMARKS
BEAUFORT       SUNNY     79  66  64 NE6       30.04R
CEDAR ISLAND     N/A     79 N/A N/A N10G16    30.09R
JACKSONVILLE   SUNNY     75  68  78 E6        30.04R
NEWPORT        NOT AVBL
PINEY ISLAND   SUNNY     80  63  55 NE12      30.03R
WILMINGTON     SUNNY     77  70  79 NE7       30.02S


$$

NCZ011>013-027>030-043-044-078>080-089-090>093-098-301400-
COASTAL PLAIN

CITY           SKY/WX    TMP DP  RH WIND       PRES   REMARKS
AHOSKIE        PTSUNNY   64  58  81 N3        30.09R
CLINTON        SUNNY     73  68  82 NE3       30.06S
ELIZABETHTOWN  SUNNY     73  66  77 CALM      30.04R
GOLDSBORO      SUNNY     71  69  93 NE5       30.05R
GREENVILLE     SUNNY     72  64  78 NE5       30.08S
HAVELOCK       SUNNY     77  65  66 NE12      30.04S
KENANSVILLE    SUNNY     71  66  84 NE3       30.06R
KINSTON        SUNNY     72  66  83 NE6       30.07R
NEW BERN       SUNNY     77  65  66 NE8       30.06R
RICHLANDS      SUNNY     75  66  73 NE8       30.05R
ROANOKE RAPIDS NOT AVBL
ROCKY MOUNT    SUNNY     70  59  68 NE9       30.08R
WASHINGTON     SUNNY     70  64  82 N6        30.07R
WHITEVILLE     SUNNY     74  69  84 CALM      30.03R

$$

AMZ130-135-150-152-154-156-158-170-250-252-270-ANZ085-086-088-633-658-670-301400-
MARINE OBSERVATIONS

STATION/POSITION TIME  TEMP    WIND        PRES    WAVE   SWELL
                       AIR SEA DIR/SP/G            HT/PER HT/PER
                 (UTC) (F)     (DEG/KT/KT) (MB)    (FT/S) (FT/S)
CHESAPEAKE LIGHT NOT AVBL
BUOY 44014       1300   75 78  340/ 10/ 12 1017.1    2/ 8   2/ 8
DUCK             1300   74 75   10/ 10/ 12 1017.0
2E DUCK          1300                        N/A     2/ 8
OREGON INLET     1300   76 78   30/  9/ 11 1017.5
BUOY 44095       1300      78                N/A     3/ 8
20E OREGON INLET NOT AVBL
HATTERAS CG      1300   77 79   50/  8/ 12 1017.7
DIAMOND BUOY     1300          VRB 12/ 16  1016.7    3/ 6   2/ 6
CAPE LOOKOUT     1300   77      50/ 13/ 15 1016.9
BEAUFORT LAB     1300   78 81   40/  4/  5 1016.6
30 SE NEW RIVER  1300   78 81   50/ 14/ 16 1016.8    3/ 8   2/ 8
5 SE WRIGHTSVILL 1200   76 81   70/ 10/ 12   N/A
BUOY 41002       1222   76 80  350/  6/ 10 1014.7    5/ 7   5/ 7
BUOY 41004       1300   82 84   70/ 10/ 12 1014.9    2/ 8   2/ 8

$$


USA.gov is the U.S. government's official web portal to all federal, state and local government web resources and services.